星链-2416 (STARLINK-2416 )

导读 | 豆包AI

STARLINK-2416是美国太空探索技术公司Starlink星链互联网卫星星座的一员,2021年3月11日于美国发射升空。星链计划旨在构建覆盖全球的低轨卫星互联网系统,该卫星入轨后承担全球偏远地区网络覆盖等服务,也参与低轨通信网络的组网运行。

基本信息
目录编号:
47829
目录名称:
STARLINK-2416
国际标识:
2021-018AU
轨道中心:
EARTH
卫星名称:
星链-2416
卫星全名:
星链-2416 (STARLINK-2416 )
卫星状态:
已陨落 最后检测时间 2025-07-17
发射日期:
2021-03-11 UTC
国别 :
美国 (US)
星等 :
--
轨道信息
数据来源 国际轨道数据
星历时间: 2025-07-17T11:46:52+0800
轨道信息已过期287天
半长轴: 6546.932km
偏心率: 0.0004605
轨道倾角: 53.020°
近地点辐角 283.009°
升交点赤经 197.291°
平近点角 126.131°
近地点: 165.782km
远地点: 171.812km
周期: 87.865分钟
每日圈数: 16.388758
详细信息
固有亮度:
5
最大亮度:
2.5
卫星平台:
Starlink V1.0
覆盖范围:
全球
运营商:
太空探索技术公司
运营商所在国:
美国
制造商(研发单位):
太空探索技术公司
制造商所在国:
美国
使用方式:
暂无
卫星简介
星链(Starlink)计划是由太空探索技术公司(SpaceX)提出的一个巨型低轨卫星互联网星座项目,计划在2019年至2024年间在太空搭建由约1.2万颗卫星组成的“星链”网络,其中1584颗将部署在地球上空550千米处的近地轨道,并从2020年开始工作。该卫星仍在工作。